Simultaneous Nadir Overpasses (SNOs) Predictions

Prediction of SNOs between NOAA-20 and AQUA Satellite Orbit:

Table of predicted SNOs for the next 14.0 days since TLE Epoch: 8/2/2019
Index Date (NOAA-20) Time (NOAA-20) Lat,Lon (NOAA-20) SZA (NOAA-20 ) Date (AQUA) Time (AQUA) Lat,Lon (AQUA) SZA (AQUA ) Distance(km) Time Diff (sec)
1 08/03/2019 22:12:50 75.55, 84.30 81.07 08/03/2019 22:13:24 75.56, 84.37 81.03 2.29 34
2 08/03/2019 23:03:13 -76.59,-104.82 100.21 08/03/2019 23:02:30 -76.60,-104.73 100.20 2.39 43
3 08/06/2019 14:29:32 76.09,-158.18 81.11 08/06/2019 14:29:42 76.09,-158.18 81.10 0.05 10
4 08/06/2019 15:19:56 -77.06, 12.80 100.12 08/06/2019 15:18:49 -77.06, 12.77 100.06 0.63 67
5 08/09/2019 05:56:03 -75.08, 147.11 96.96 08/09/2019 05:57:05 -75.09, 147.19 97.04 2.61 62
6 08/09/2019 06:46:14 76.61, -40.53 81.18 08/09/2019 06:46:00 76.60, -40.62 81.22 2.66 14
7 08/11/2019 22:12:42 -75.72, -95.18 96.98 08/11/2019 22:13:20 -75.71, -95.19 97.01 0.50 38
8 08/11/2019 23:03:05 76.67, 75.50 81.85 08/11/2019 23:02:26 76.67, 75.51 81.88 0.32 39
9 08/14/2019 14:29:31 -75.92, 21.28 96.46 08/14/2019 14:29:44 -75.93, 21.34 96.49 1.90 13




NCC Satellite Simultaneous Nadir Overpasses (SNOs) Prediction Service
